NY5V Weather Reports


Display with metric or nautical units.
time (UTC)temp
F
wind
direction
speed
MPH
gust
MPH
rain 1hr
in
rain 24hr
in
rain mn
in
humidity
%
barometer
mb
20260510094124 67 48 0.0 0.0 0.00 0.00 0.00 97 1014.0
20260510093124 67 56 0.0 0.0 0.00 0.00 0.00 97 1013.7
20260510092121 67 59 0.0 0.0 0.00 0.00 0.00 97 1013.3
20260510091119 67 57 0.0 0.0 0.00 0.00 0.00 97 1013.2
20260510090118 68 55 0.0 0.0 0.00 0.00 0.00 97 1012.8
20260510085115 68 51 0.0 0.0 0.00 0.00 0.00 97 1012.2
20260510084114 68 42 0.0 0.0 0.00 0.00 0.00 96 1012.5
20260510083113 68 52 0.0 0.0 0.00 0.00 0.00 95 1013.0
20260510082111 69 53 0.0 0.0 0.00 0.00 0.00 95 1013.1
20260510081108 68 63 1.0 1.0 0.00 0.00 0.00 95 1012.6
20260510080104 69 58 0.0 0.0 0.00 0.00 0.00 95 1012.2
20260510075104 69 48 0.0 1.0 0.00 0.00 0.00 94 1010.9
20260510074102 69 36 4.0 6.0 0.00 0.00 0.00 94 1010.9
20260510073102 69 40 0.0 0.0 0.00 0.00 0.00 94 1010.9
20260510072100 69 35 2.0 3.0 0.00 0.00 0.00 94 1010.8
20260510071100 69 45 0.0 1.0 0.00 0.00 0.00 94 1010.6
20260510070100 69 37 1.0 1.0 0.00 0.00 0.00 93 1010.8
20260510065058 70 43 0.0 0.0 0.00 0.00 0.00 93 1011.4
20260510064058 70 53 0.0 0.0 0.00 0.00 0.00 92 1011.9
20260510063057 70 50 0.0 0.0 0.00 0.00 0.00 92 1011.6
20260510062054 70 47 0.0 0.0 0.00 0.00 0.00 92 1011.7
20260510061054 71 52 0.0 0.0 0.00 0.00 0.00 91 1011.4
20260510060052 71 52 0.0 1.0 0.00 0.00 0.00 90 1011.4
20260510055053 71 55 1.0 2.0 0.00 0.00 0.00 90 1011.3
20260510054049 72 42 1.0 1.0 0.00 0.00 0.00 90 1011.2
20260510053046 72 13 1.0 2.0 0.00 0.00 0.00 90 1011.3
20260510052044 72 52 0.0 0.0 0.00 0.00 0.00 90 1011.1
20260510051042 73 59 0.0 0.0 0.00 0.00 0.00 90 1011.2
20260510050042 73 46 0.0 0.0 0.00 0.00 0.00 91 1011.1
20260510045041 73 46 1.0 1.0 0.00 0.00 0.00 90 1010.9
20260510044042 73 50 1.0 2.0 0.00 0.00 0.00 90 1010.7
20260510043039 74 355 1.0 1.0 0.00 0.00 0.00 92 1011.0
20260510042033 74 46 0.0 0.0 0.00 0.00 0.00 92 1011.2
20260510041028 75 46 0.0 0.0 0.00 0.00 0.00 92 1011.4
20260510040026 75 12 3.0 4.0 0.00 0.00 0.00 92 1011.0
20260510035022 75 47 0.0 0.0 0.00 0.00 0.00 91 1011.3
20260510034017 76 14 1.0 2.0 0.00 0.00 0.00 91 1011.1
20260510033018 76 49 0.0 0.0 0.00 0.00 0.00 91 1011.1
20260510032014 76 35 0.0 1.0 0.00 0.00 0.00 90 1011.1
20260510031011 77 12 1.0 1.0 0.00 0.00 0.00 90 1011.0
20260510030011 77 45 0.0 0.0 0.00 0.00 0.00 89 1010.7
20260510025005 77 74 1.0 2.0 0.00 0.00 0.00 88 1010.4
20260510024004 77 41 1.0 1.0 0.00 0.00 0.00 88 1010.3
20260510023003 78 55 0.0 0.0 0.00 0.00 0.00 86 1010.4
20260510022001 78 52 0.0 1.0 0.00 0.00 0.00 86 1010.2
20260510021002 78 48 0.0 0.0 0.00 0.00 0.00 85 1010.1
20260510015958 79 62 0.0 0.0 0.00 0.00 0.00 84 1010.0
20260510014955 79 63 0.0 1.0 0.00 0.00 0.00 83 1010.0
20260510013955 79 53 0.0 1.0 0.00 0.00 0.00 82 1009.8
20260510012952 80 60 1.0 1.0 0.00 0.00 0.00 80 1009.7
20260510011948 81 45 0.0 0.0 0.00 0.00 0.00 78 1009.4
20260510010945 82 66 0.0 0.0 0.00 0.00 0.00 76 1009.3
20260510005945 82 55 0.0 0.0 0.00 0.00 0.00 72 1009.1
20260510004945 82 46 0.0 0.0 0.00 0.00 0.00 71 1008.9
20260510003940 83 65 1.0 2.0 0.00 0.00 0.00 71 1009.2
20260510002936 83 49 0.0 0.0 0.00 0.00 0.00 70 1009.1
20260510001935 84 45 0.0 0.0 0.00 0.00 0.00 70 1008.7
20260510000930 84 56 0.0 1.0 0.00 0.00 0.00 69 1008.9
20260509235928 84 52 0.0 0.0 0.00 0.00 0.00 68 1008.6
20260509234927 84 58 0.0 1.0 0.00 0.00 0.00 68 1008.5
20260509233923 85 70 0.0 0.0 0.00 0.00 0.00 67 1008.3
20260509232922 84 46 0.0 0.0 0.00 0.00 0.00 67 1008.3
20260509231921 84 47 0.0 0.0 0.00 0.00 0.00 69 1008.1
20260509230916 84 81 1.0 1.0 0.00 0.00 0.00 68 1008.1
20260509225914 84 56 0.0 0.0 0.00 0.00 0.00 69 1008.2
20260509224913 84 55 0.0 0.0 0.00 0.00 0.00 68 1008.4
20260509223911 85 52 0.0 0.0 0.00 0.00 0.00 67 1008.2
20260509222911 86 46 0.0 1.0 0.00 0.00 0.00 67 1008.1
20260509221907 86 52 0.0 1.0 0.00 0.00 0.00 64 1008.1
20260509220906 86 63 1.0 1.0 0.00 0.00 0.00 66 1008.2
20260509215904 86 75 0.0 1.0 0.00 0.00 0.00 66 1008.2
20260509214904 88 49 0.0 0.0 0.00 0.00 0.00 56 1008.2
20260509213858 87 72 1.0 2.0 0.00 0.00 0.00 59 1008.3
20260509212857 87 47 1.0 1.0 0.00 0.00 0.00 59 1008.4
20260509211856 86 28 2.0 3.0 0.00 0.00 0.00 62 1008.6
20260509210854 86 52 0.0 0.0 0.00 0.00 0.00 65 1008.7
20260509205851 86 28 2.0 3.0 0.00 0.00 0.00 67 1008.7
20260509204849 85 0 2.0 3.0 0.00 0.00 0.00 66 1008.8
20260509203847 85 345 2.0 2.0 0.00 0.00 0.00 64 1009.0
20260509202846 85 43 0.0 0.0 0.00 0.00 0.00 66 1008.9
20260509201843 86 47 2.0 2.0 0.00 0.00 0.00 63 1009.2
20260509200841 88 72 1.0 2.0 0.00 0.00 0.00 62 1009.2
20260509195839 86 39 2.0 2.0 0.00 0.00 0.00 63 1009.2
20260509194839 87 46 0.0 0.0 0.00 0.00 0.00 62 1009.4
20260509193838 86 65 0.0 0.0 0.00 0.00 0.00 63 1009.6
20260509192834 85 49 0.0 0.0 0.00 0.00 0.00 66 1009.7
20260509191831 84 50 1.0 1.0 0.00 0.00 0.00 67 1009.9
20260509190829 85 48 0.0 0.0 0.00 0.00 0.00 66 1009.9
20260509185824 84 53 0.0 0.0 0.00 0.00 0.00 69 1009.8
20260509184824 84 47 0.0 0.0 0.00 0.00 0.00 70 1010.1
20260509183823 84 36 1.0 1.0 0.00 0.00 0.00 69 1010.1
20260509182820 83 45 0.0 1.0 0.00 0.00 0.00 70 1010.1
20260509181821 85 41 0.0 1.0 0.00 0.00 0.00 69 1010.2
20260509180821 85 40 0.0 0.0 0.00 0.00 0.00 70 1010.3
20260509175819 84 353 2.0 2.0 0.00 0.00 0.00 72 1010.6
20260509174817 81 30 0.0 1.0 0.00 0.00 0.00 76 1010.5
20260509173815 82 32 1.0 2.0 0.00 0.00 0.00 76 1010.9
20260509172813 80 74 2.0 2.0 0.00 0.00 0.00 77 1010.8
20260509171812 80 11 2.0 3.0 0.00 0.00 0.00 79 1010.8
20260509170810 81 2 2.0 3.0 0.00 0.00 0.00 77 1010.9
20260509165806 81 29 1.0 1.0 0.00 0.00 0.00 79 1010.9
20260509164802 80 48 0.0 0.0 0.00 0.00 0.00 79 1011.0
20260509163801 82 37 1.0 1.0 0.00 0.00 0.00 76 1010.8
20260509162757 81 344 3.0 3.0 0.00 0.00 0.00 77 1010.8
20260509161753 80 49 0.0 0.0 0.00 0.00 0.00 79 1010.7
20260509160750 80 39 3.0 4.0 0.00 0.00 0.00 80 1010.8
20260509155748 80 12 1.0 2.0 0.00 0.00 0.00 82 1011.0
20260509154747 78 38 1.0 1.0 0.00 0.00 0.00 85 1010.8
20260509153747 77 45 0.0 0.0 0.00 0.00 0.00 87 1010.7
20260509152745 76 47 0.0 0.0 0.00 0.00 0.00 89 1010.8
20260509151745 75 39 2.0 2.0 0.00 0.00 0.00 92 1010.5
20260509150739 74 39 1.0 1.0 0.00 0.00 0.00 96 1010.9
20260509145734 73 7 2.0 2.0 0.00 0.00 0.00 96 1010.9
20260509144731 73 37 1.0 1.0 0.00 0.00 0.00 96 1010.9
20260509143731 73 41 0.0 0.0 0.00 0.00 0.00 95 1011.0
20260509142730 73 45 0.0 0.0 0.00 0.00 0.00 95 1011.1
20260509141727 73 47 0.0 0.0 0.00 0.00 0.00 95 1011.2
20260509140727 73 47 0.0 0.0 0.00 0.00 0.00 95 1011.2
20260509135722 73 50 0.0 0.0 0.00 0.00 0.00 95 1011.1
20260509134722 72 51 0.0 0.0 0.00 0.00 0.00 96 1011.0
20260509133717 72 47 0.0 0.0 0.00 0.00 0.00 97 1011.0
20260509132712 72 48 0.0 0.0 0.00 0.00 0.00 98 1010.8
20260509131712 71 36 1.0 1.0 0.00 0.00 0.00 98 1010.9
20260509130711 71 44 2.0 2.0 0.00 0.00 0.00 99 1010.7
20260509125710 71 46 0.0 0.0 0.00 0.00 0.00 99 1011.0
20260509124709 71 44 1.0 1.0 0.00 0.00 0.00 99 1011.1
20260509123704 71 334 2.0 2.0 0.00 0.00 0.00 99 1010.9
20260509122702 71 43 0.0 1.0 0.00 0.00 0.00 99 1010.8
20260509121701 70 44 0.0 0.0 0.00 0.00 0.00 99 1010.4
20260509120657 70 33 0.0 1.0 0.00 0.00 0.00 99 1010.2
20260509115652 70 18 2.0 2.0 0.00 0.00 0.00 99 1010.3
20260509114648 70 45 0.0 1.0 0.00 0.00 0.00 99 1010.3
20260509113644 70 38 2.0 2.0 0.00 0.00 0.00 99 1010.2
20260509112643 70 45 0.0 1.0 0.00 0.00 0.00 99 1009.7
20260509111638 70 50 2.0 3.0 0.00 0.00 0.00 99 1009.7
20260509110637 70 37 1.0 1.0 0.00 0.00 0.00 99 1009.3
20260509105633 70 22 2.0 2.0 0.00 0.00 0.00 99 1009.0
20260509104633 70 48 1.0 2.0 0.00 0.00 0.00 99 1009.1
20260509103627 70 51 1.0 1.0 0.00 0.00 0.00 99 1009.4
20260509102622 69 33 3.0 4.0 0.00 0.00 0.00 99 1009.4
20260509101620 69 35 1.0 1.0 0.00 0.00 0.00 99 1009.5
20260509100620 69 35 1.0 1.0 0.00 0.00 0.00 99 1009.7
20260509095620 69 40 1.0 1.0 0.00 0.00 0.00 99 1009.6